ONEWEB-0054, 45158

Orbit data source: Space-Track

ONEWEB-0054, 45158 is a payload satellite owned by One Web (UK) in LEO that was launched on Thu, 06 Feb 2020 UTC via a SOYUZ-2-1B launch vehicle from the Tyuratam Missile And Space Complex (TTMTR). Payload-class satellites include a variety of spacecraft equipped with specific instruments for various scientific and technological missions. These include communications satellites like Starlink; space stations such as the ISS; scientific satellites like the Hubble; Earth observation satellites from companies like Planet Labs, Umbra, and HawkEye 360; GPS; miniature CubeSats for education and research; and military/defense satellites.

Loading next visibility...
Identifier
45158, 2020-008AD
Orbit
LEO
Country
Flag of UKUK
Related business
Manufacturer
One Web
Mission
Operational Commercial Communications
Bus & Motor
ARROW, Unknown motor
Mass
148 kg wet, ~140 kg dry
Launch date (UTC)
2020-02-06 (6 years ago)
Launch vehicle
SOYUZ-2-1B
Launch site
Tyuratam Missile And Space Complex (TTMTR)
Object type
Payload
Rocket body
Debris
Shape & HBR
Trap Box + 2 Pan, 6.7 m
Radar Cross Section
3.464 m², Large (>1 m²)

Expand to show TLE details & history
Last TLE update: 17 hours ago

TLE from 17 hours ago
0 ONEWEB-0054
1 45158U 20008AD  26034.53345400  .00000502  00000-0  14016-2 0  9993
2 45158  87.8755  62.8951 0001951  95.4399 264.6951 13.10370049290520
Epoch: 2026-02-03T12:48Z
TLE epoch observation values (Epoch: 2026-02-03T12:48:10.425Z)
Latitude
-0.00002°
Longitude
97.13864°
Altitude
1,224.753 km
Speed
7.242 km/s
True Right ascension
04h 11m 34s
True Declination
0° 00' 00"
Sunlit
Object was in daylight at epoch
Visualization orbit readout
Latitude
Unknown
Longitude
Unknown
Altitude
Unknown
Speed
Unknown
Apparent Right ascension
Unknown
Apparent Declination
Unknown
Sunlit
N/A
Visualization observer readout
Local Sidereal Time
08:09:47
Azimuth
Unknown
Elevation
Unknown
Doppler factor
Unknown
Orbital elements
Apogee altitude
1,220.33 km
Perigee altitude
1,217.366 km
Semi-major axis
7,596.985 km
Eccentricity
0.0002
Inclination
87.8755°
RAAN
62.8951°
Arg. of periapsis
95.4399°
True anomaly
264.67284°
Mean anomaly
264.6951°
Eccentric anomaly
264.68397°
Mean motion
3.27779 °/min
Orbital period
109.83 mins
BSTAR
0.0014016
Loading maneuver chart data...
Computing Atmospheric mass density...
Loading historical data...
Loading historical data...
Loading historical data...
Loading historical data...
Loading historical data...
Loading historical data...
Loading historical data...

Documentation

Showing up to 5 results
|